Météo par heure à Alleroy

Ce jour, 15 Mai, Samedi

Heure Température Précipitation Vent Pression Humidité
00:00 +18°C° 0 mm 2 m/s 728 mmHg 56%
01:00 +18°C° 0 mm 2 m/s 728 mmHg 56%
02:00 +18°C° 0 mm 2 m/s 728 mmHg 57%
03:00 +18°C° 0 mm 2 m/s 728 mmHg 57%
04:00 +19°C° 0 mm 1 m/s 728 mmHg 58%
05:00 +20°C° 0 mm 1 m/s 728 mmHg 59%
06:00 +21°C° 0 mm 1 m/s 729 mmHg 60%
07:00 +23°C° 0 mm 1 m/s 729 mmHg 55%
08:00 +25°C° 0 mm 1 m/s 729 mmHg 50%
09:00 +27°C° 0 mm 1 m/s 730 mmHg 43%
10:00 +28°C° 0 mm 2 m/s 730 mmHg 40%
11:00 +29°C° 0 mm 2 m/s 730 mmHg 37%
12:00 +31°C° 0 mm 3 m/s 730 mmHg 34%
13:00 +31°C° 0 mm 3 m/s 729 mmHg 33%
14:00 +32°C° 0 mm 4 m/s 729 mmHg 32%
15:00 +32°C° 0 mm 4 m/s 729 mmHg 31%
16:00 +29°C° 0 mm 3 m/s 729 mmHg 38%
17:00 +27°C° 0 mm 3 m/s 729 mmHg 45%
18:00 +25°C° 0 mm 2 m/s 729 mmHg 52%
19:00 +24°C° 0 mm 2 m/s 729 mmHg 55%
20:00 +21°C° 0 mm 2 m/s 729 mmHg 58%
21:00 +19°C° 0 mm 2 m/s 729 mmHg 61%
22:00 +19°C° 0 mm 2 m/s 729 mmHg 61%
23:00 +19°C° 0 mm 2 m/s 729 mmHg 61%

Demain, 16 Mai, Dimanche

Heure Température Précipitation Vent Pression Humidité
00:00 +19°C° 0 mm 2 m/s 728 mmHg 62%
01:00 +19°C° 0 mm 1 m/s 728 mmHg 62%
02:00 +19°C° 0 mm 1 m/s 728 mmHg 62%
03:00 +19°C° 0 mm 1 m/s 728 mmHg 62%
04:00 +19°C° 0 mm 1 m/s 728 mmHg 63%
05:00 +20°C° 0 mm 1 m/s 727 mmHg 63%
06:00 +20°C° 0 mm 1 m/s 727 mmHg 64%
07:00 +22°C° 0 mm 1 m/s 727 mmHg 58%
08:00 +24°C° 0 mm 1 m/s 727 mmHg 52%
09:00 +27°C° 0 mm 1 m/s 727 mmHg 46%
10:00 +28°C° 0 mm 2 m/s 727 mmHg 42%
11:00 +30°C° 0 mm 3 m/s 727 mmHg 38%
12:00 +32°C° 0 mm 4 m/s 726 mmHg 34%
13:00 +32°C° 0 mm 4 m/s 726 mmHg 33%
14:00 +33°C° 0 mm 5 m/s 725 mmHg 32%
15:00 +33°C° 0 mm 6 m/s 725 mmHg 31%
16:00 +30°C° 0 mm 5 m/s 724 mmHg 36%
17:00 +29°C° 0 mm 4 m/s 724 mmHg 41%
18:00 +27°C° 0 mm 4 m/s 724 mmHg 47%
19:00 +26°C° 0 mm 4 m/s 724 mmHg 48%
20:00 +24°C° 0 mm 3 m/s 724 mmHg 48%
21:00 +22°C° 0 mm 3 m/s 724 mmHg 49%
22:00 +21°C° 0 mm 3 m/s 724 mmHg 49%
23:00 +20°C° 0 mm 3 m/s 724 mmHg 48%

Après-demain, 17 Mai, Lundi

Heure Température Précipitation Vent Pression Humidité
00:00 +20°C° 0 mm 2 m/s 724 mmHg 47%
01:00 +19°C° 0 mm 2 m/s 724 mmHg 46%
02:00 +19°C° 0 mm 2 m/s 724 mmHg 44%
03:00 +18°C° 0 mm 2 m/s 724 mmHg 43%
04:00 +19°C° 0 mm 2 m/s 724 mmHg 45%
05:00 +19°C° 0 mm 2 m/s 724 mmHg 47%
06:00 +21°C° 0 mm 1 m/s 724 mmHg 49%
07:00 +23°C° 0 mm 2 m/s 724 mmHg 45%
08:00 +25°C° 0 mm 2 m/s 724 mmHg 41%
09:00 +28°C° 0 mm 2 m/s 724 mmHg 36%
10:00 +29°C° 0 mm 2 m/s 724 mmHg 33%
11:00 +31°C° 0 mm 3 m/s 724 mmHg 31%
12:00 +33°C° 0 mm 4 m/s 724 mmHg 28%
13:00 +33°C° 0 mm 4 m/s 724 mmHg 29%
14:00 +33°C° 0 mm 4 m/s 724 mmHg 30%
15:00 +33°C° 0 mm 4 m/s 723 mmHg 31%
16:00 +30°C° 0 mm 4 m/s 723 mmHg 39%
17:00 +28°C° 0 mm 3 m/s 723 mmHg 48%
18:00 +26°C° 0 mm 3 m/s 722 mmHg 56%
19:00 +24°C° 0 mm 3 m/s 723 mmHg 58%
20:00 +22°C° 0 mm 3 m/s 724 mmHg 60%
21:00 +20°C° 0 mm 3 m/s 725 mmHg 62%
22:00 +20°C° 0 mm 2 m/s 725 mmHg 65%
23:00 +20°C° 0 mm 2 m/s 725 mmHg 68%

18 Mai, Mardi

Heure Température Précipitation Vent Pression Humidité
00:00 +20°C° 0 mm 2 m/s 725 mmHg 71%
01:00 +19°C° 0 mm 2 m/s 725 mmHg 73%
02:00 +19°C° 0 mm 3 m/s 725 mmHg 74%
03:00 +18°C° 0 mm 3 m/s 725 mmHg 76%
04:00 +18°C° 0 mm 4 m/s 726 mmHg 77%
05:00 +19°C° 0 mm 5 m/s 726 mmHg 79%
06:00 +19°C° 0 mm 5 m/s 727 mmHg 80%
07:00 +19°C° 0 mm 5 m/s 727 mmHg 79%
08:00 +19°C° 0 mm 5 m/s 728 mmHg 79%
09:00 +20°C° 0 mm 5 m/s 728 mmHg 79%
10:00 +19°C° 0.6 mm 5 m/s 728 mmHg 82%
11:00 +19°C° 0.6 mm 4 m/s 728 mmHg 85%
12:00 +18°C° 0.6 mm 4 m/s 728 mmHg 88%
13:00 +19°C° 0.3 mm 4 m/s 729 mmHg 85%
14:00 +19°C° 0.3 mm 3 m/s 729 mmHg 82%
15:00 +20°C° 0.3 mm 3 m/s 729 mmHg 79%
16:00 +20°C° 0 mm 2 m/s 729 mmHg 78%
17:00 +20°C° 0 mm 2 m/s 729 mmHg 77%
18:00 +20°C° 0 mm 2 m/s 729 mmHg 77%
19:00 +19°C° 0.1 mm 2 m/s 729 mmHg 80%
20:00 +18°C° 0.1 mm 2 m/s 729 mmHg 83%
21:00 +17°C° 0.1 mm 3 m/s 729 mmHg 87%
22:00 +17°C° 0 mm 2 m/s 729 mmHg 86%
23:00 +17°C° 0 mm 2 m/s 729 mmHg 85%

19 Mai, Mercredi

Heure Température Précipitation Vent Pression Humidité
00:00 +17°C° 0 mm 2 m/s 729 mmHg 84%
01:00 +17°C° 0 mm 2 m/s 729 mmHg 85%
02:00 +16°C° 0 mm 2 m/s 730 mmHg 85%
03:00 +16°C° 0 mm 2 m/s 730 mmHg 85%
04:00 +17°C° 0 mm 2 m/s 730 mmHg 83%
05:00 +17°C° 0 mm 2 m/s 730 mmHg 80%
06:00 +18°C° 0 mm 2 m/s 730 mmHg 78%
07:00 +20°C° 0 mm 2 m/s 730 mmHg 70%
08:00 +23°C° 0 mm 2 m/s 730 mmHg 63%
09:00 +25°C° 0 mm 2 m/s 731 mmHg 55%
10:00 +26°C° 0 mm 2 m/s 730 mmHg 52%
11:00 +27°C° 0 mm 2 m/s 730 mmHg 48%
12:00 +28°C° 0 mm 2 m/s 730 mmHg 45%
13:00 +28°C° 0 mm 2 m/s 730 mmHg 44%
14:00 +28°C° 0 mm 2 m/s 730 mmHg 43%
15:00 +29°C° 0 mm 2 m/s 730 mmHg 42%
16:00 +28°C° 0 mm 2 m/s 730 mmHg 47%
17:00 +27°C° 0 mm 2 m/s 730 mmHg 52%
18:00 +26°C° 0 mm 2 m/s 730 mmHg 57%
19:00 +24°C° 0 mm 2 m/s 730 mmHg 62%
20:00 +21°C° 0 mm 2 m/s 730 mmHg 66%
21:00 +19°C° 0 mm 2 m/s 730 mmHg 71%
22:00 +19°C° 0 mm 2 m/s 730 mmHg 71%
23:00 +19°C° 0 mm 2 m/s 730 mmHg 71%

20 Mai, Jeudi

Heure Température Précipitation Vent Pression Humidité
00:00 +19°C° 0 mm 2 m/s 729 mmHg 71%
01:00 +19°C° 0 mm 2 m/s 729 mmHg 71%
02:00 +18°C° 0 mm 2 m/s 729 mmHg 71%
03:00 +18°C° 0 mm 2 m/s 729 mmHg 71%
04:00 +19°C° 0 mm 2 m/s 729 mmHg 70%
05:00 +20°C° 0 mm 1 m/s 729 mmHg 69%
06:00 +21°C° 0 mm 1 m/s 729 mmHg 67%
07:00 +23°C° 0 mm 2 m/s 729 mmHg 61%
08:00 +26°C° 0 mm 2 m/s 729 mmHg 54%
09:00 +28°C° 0 mm 3 m/s 729 mmHg 48%
10:00 +29°C° 0 mm 3 m/s 729 mmHg 44%
11:00 +32°C° 0 mm 4 m/s 728 mmHg 40%
12:00 +34°C° 0 mm 4 m/s 728 mmHg 36%
13:00 +34°C° 0 mm 5 m/s 727 mmHg 35%
14:00 +34°C° 0 mm 5 m/s 727 mmHg 35%
15:00 +34°C° 0 mm 6 m/s 727 mmHg 35%
16:00 +32°C° 0 mm 5 m/s 727 mmHg 41%
17:00 +29°C° 0 mm 5 m/s 726 mmHg 47%
18:00 +28°C° 0 mm 4 m/s 726 mmHg 53%
19:00 +26°C° 0 mm 3 m/s 726 mmHg 56%
20:00 +24°C° 0 mm 3 m/s 726 mmHg 59%
21:00 +22°C° 0 mm 3 m/s 726 mmHg 62%
22:00 +21°C° 0 mm 2 m/s 726 mmHg 63%
23:00 +21°C° 0 mm 2 m/s 725 mmHg 65%
Voir plus

Nous avons besoin de votre consentement

Meteoprog et ses fournisseurs de services peuvent stocker et accéder à des données personnelles telles que des cookies, des identifiants d'appareils ou d'autres technologies similaires sur votre appareil et traiter ces données pour personnaliser le contenu et les publicités, ainsi que pour fournir des fonctionnalités de médias sociaux et analyser le trafic.

  • Stocker et/ou accéder à des informations sur votre appareil

    Des cookies, des identifiants d'appareils ou d'autres informations peuvent être stockés ou accessibles sur votre appareil aux fins indiquées ci-dessus.

  • Annonces et contenus personnalisés, mesure des annonces et des contenus, connaissance de l'audience et développement de produits

    Les annonces et le contenu peuvent être personnalisés en fonction d'un profil. D'autres données peuvent être ajoutées pour mieux personnaliser les annonces et le contenu. Les performances des publicités et du contenu peuvent être mesurées. Il est possible d'obtenir des informations sur le public qui a vu les publicités et le contenu. Ces données peuvent être utilisées pour développer ou améliorer l'expérience de l'utilisateur, les systèmes et les logiciels.

En cliquant sur "J'accepte", vous autorisez l'utilisation de cookies, des identifiants d'appareils, des balises web ou d'autres technologies similaires. Vos paramètres peuvent être modifiés dans le navigateur de votre appareil.

Dans certains cas, des intérêts légitimes peuvent être invoqués plutôt qu'un consentement. Vous pouvez en savoir plus à ce sujet dans notre Politique de confidentialité et de cookies.